Index of /20260424/WXO-DD/model_gdps/15km/12/071
Name Last modified Size Description
Parent Directory -
20260424T12Z_MSC_GDPS_AirTemp_AGL-120m_LatLon0.15_PT071H.grib2 2026-04-24 16:04 909K
20260424T12Z_MSC_GDPS_AirTemp_AGL-2m_LatLon0.15_PT071H.grib2 2026-04-24 16:04 1.0M
20260424T12Z_MSC_GDPS_AirTemp_AGL-40m_LatLon0.15_PT071H.grib2 2026-04-24 16:04 811K
20260424T12Z_MSC_GDPS_AirTemp_AGL-80m_LatLon0.15_PT071H.grib2 2026-04-24 16:04 802K
20260424T12Z_MSC_GDPS_Albedo_Sfc_LatLon0.15_PT071H.grib2 2026-04-24 16:04 242K
20260424T12Z_MSC_GDPS_ConvectivePrecip-Accum_Sfc_LatLon0.15_PT071H.grib2 2026-04-24 16:04 3.0M
20260424T12Z_MSC_GDPS_DewPointDepression_AGL-2m_LatLon0.15_PT071H.grib2 2026-04-24 16:04 757K
20260424T12Z_MSC_GDPS_DewPoint_AGL-2m_LatLon0.15_PT071H.grib2 2026-04-24 16:04 610K
20260424T12Z_MSC_GDPS_DownwardLongwaveRadiationFlux-Accum_Sfc_LatLon0.15_PT071H.grib2 2026-04-24 16:04 905K
20260424T12Z_MSC_GDPS_DownwardShortwaveRadiationFlux-Accum_Sfc_LatLon0.15_PT071H.grib2 2026-04-24 16:04 1.1M
20260424T12Z_MSC_GDPS_FreezingRain-Accum1h_Sfc_LatLon0.15_PT071H.grib2 2026-04-24 16:04 53K
20260424T12Z_MSC_GDPS_FreezingRain-Accum_Sfc_LatLon0.15_PT071H.grib2 2026-04-24 16:04 344K
20260424T12Z_MSC_GDPS_IcePellets-Accum1h_Sfc_LatLon0.15_PT071H.grib2 2026-04-24 16:04 23K
20260424T12Z_MSC_GDPS_IcePellets-Accum_Sfc_LatLon0.15_PT071H.grib2 2026-04-24 16:04 117K
20260424T12Z_MSC_GDPS_LatentHeatNetFlux_Sfc_LatLon0.15_PT071H.grib2 2026-04-24 16:04 722K
20260424T12Z_MSC_GDPS_NetLongwaveRadiationFlux-Accum_Sfc_LatLon0.15_PT071H.grib2 2026-04-24 16:04 964K
20260424T12Z_MSC_GDPS_NetShortwaveRadiationFlux-Accum_Sfc_LatLon0.15_PT071H.grib2 2026-04-24 16:04 1.1M
20260424T12Z_MSC_GDPS_O3MixingRatio_LatLon0.15_PT071H.grib2 2026-04-24 16:50 2.2M
20260424T12Z_MSC_GDPS_O3_EAtm_LatLon0.15_PT071H.grib2 2026-04-24 16:50 2.5M
20260424T12Z_MSC_GDPS_PlanetaryBoundaryLayerHeight_Sfc_LatLon0.15_PT071H.grib2 2026-04-24 16:04 2.5M
20260424T12Z_MSC_GDPS_Precip-Accum1h_Sfc_LatLon0.15_PT071H.grib2 2026-04-24 16:04 3.3M
20260424T12Z_MSC_GDPS_Precip-Accum_Sfc_LatLon0.15_PT071H.grib2 2026-04-24 16:04 4.8M
20260424T12Z_MSC_GDPS_PrecipRate_Sfc_LatLon0.15_PT071H.grib2 2026-04-24 16:04 3.0M
20260424T12Z_MSC_GDPS_Pressure_MSL_LatLon0.15_PT071H.grib2 2026-04-24 16:04 722K
20260424T12Z_MSC_GDPS_Pressure_Sfc_LatLon0.15_PT071H.grib2 2026-04-24 16:04 1.1M
20260424T12Z_MSC_GDPS_RadiativeTemp_Sfc_LatLon0.15_PT071H.grib2 2026-04-24 16:04 504K
20260424T12Z_MSC_GDPS_Rain-Accum1h_Sfc_LatLon0.15_PT071H.grib2 2026-04-24 16:04 1.7M
20260424T12Z_MSC_GDPS_Rain-Accum_Sfc_LatLon0.15_PT071H.grib2 2026-04-24 16:04 3.7M
20260424T12Z_MSC_GDPS_RelativeHumidity_AGL-2m_LatLon0.15_PT071H.grib2 2026-04-24 16:04 1.1M
20260424T12Z_MSC_GDPS_Runoff-Accum_Sfc_LatLon0.15_PT071H.grib2 2026-04-24 16:04 105K
20260424T12Z_MSC_GDPS_SensibleHeatNetFlux_Sfc_LatLon0.15_PT071H.grib2 2026-04-24 16:04 491K
20260424T12Z_MSC_GDPS_Snow-Accum1h_Sfc_LatLon0.15_PT071H.grib2 2026-04-24 16:04 1.0M
20260424T12Z_MSC_GDPS_Snow-Accum_Sfc_LatLon0.15_PT071H.grib2 2026-04-24 16:04 2.1M
20260424T12Z_MSC_GDPS_SnowDepth_Sfc_LatLon0.15_PT071H.grib2 2026-04-24 16:04 1.8M
20260424T12Z_MSC_GDPS_SoilTemp_DBS-0to10cm_LatLon0.15_PT071H.grib2 2026-04-24 16:04 507K
20260424T12Z_MSC_GDPS_SoilTemp_Sfc_LatLon0.15_PT071H.grib2 2026-04-24 16:04 576K
20260424T12Z_MSC_GDPS_SoilVolumetricWaterContent_DBS-0to10cm_LatLon0.15_PT071H.grib2 2026-04-24 16:04 571K
20260424T12Z_MSC_GDPS_SoilVolumetricWaterContent_DBS-0to1cm_LatLon0.15_PT071H.grib2 2026-04-24 16:04 651K
20260424T12Z_MSC_GDPS_SpecificHumidity_AGL-120m_LatLon0.15_PT071H.grib2 2026-04-24 16:04 1.1M
20260424T12Z_MSC_GDPS_SpecificHumidity_AGL-2m_LatLon0.15_PT071H.grib2 2026-04-24 16:04 1.2M
20260424T12Z_MSC_GDPS_SpecificHumidity_AGL-40m_LatLon0.15_PT071H.grib2 2026-04-24 16:04 1.1M
20260424T12Z_MSC_GDPS_SpecificHumidity_AGL-80m_LatLon0.15_PT071H.grib2 2026-04-24 16:04 1.1M
20260424T12Z_MSC_GDPS_SpecificHumidity_Sfc_LatLon0.15_PT071H.grib2 2026-04-24 16:04 678K
20260424T12Z_MSC_GDPS_TotalCloudCover_Sfc_LatLon0.15_PT071H.grib2 2026-04-24 16:04 836K
20260424T12Z_MSC_GDPS_UVIndex-ClearSky_Sfc_LatLon0.15_PT071H.grib2 2026-04-24 16:50 1.0M
20260424T12Z_MSC_GDPS_UVIndex_Sfc_LatLon0.15_PT071H.grib2 2026-04-24 16:50 1.5M
20260424T12Z_MSC_GDPS_UpwardLongwaveRadiationFlux_NTAtm_LatLon0.15_PT071H.grib2 2026-04-24 16:04 842K
20260424T12Z_MSC_GDPS_WindDir_AGL-10m_LatLon0.15_PT071H.grib2 2026-04-24 16:04 1.3M
20260424T12Z_MSC_GDPS_WindDir_AGL-120m_LatLon0.15_PT071H.grib2 2026-04-24 16:04 1.3M
20260424T12Z_MSC_GDPS_WindDir_AGL-40m_LatLon0.15_PT071H.grib2 2026-04-24 16:04 1.4M
20260424T12Z_MSC_GDPS_WindDir_AGL-80m_LatLon0.15_PT071H.grib2 2026-04-24 16:04 1.4M
20260424T12Z_MSC_GDPS_WindDir_IsbL-0700_LatLon0.15_PT071H.grib2 2026-04-24 16:04 1.6M
20260424T12Z_MSC_GDPS_WindGust-Max_AGL-10m_LatLon0.15_PT071H.grib2 2026-04-24 16:04 2.2M
20260424T12Z_MSC_GDPS_WindGust-Min_AGL-10m_LatLon0.15_PT071H.grib2 2026-04-24 16:04 2.1M
20260424T12Z_MSC_GDPS_WindGust_AGL-10m_LatLon0.15_PT071H.grib2 2026-04-24 16:04 2.1M
20260424T12Z_MSC_GDPS_WindSpeed_AGL-10m_LatLon0.15_PT071H.grib2 2026-04-24 16:04 1.1M
20260424T12Z_MSC_GDPS_WindSpeed_AGL-120m_LatLon0.15_PT071H.grib2 2026-04-24 16:04 1.2M
20260424T12Z_MSC_GDPS_WindSpeed_AGL-40m_LatLon0.15_PT071H.grib2 2026-04-24 16:04 1.2M
20260424T12Z_MSC_GDPS_WindSpeed_AGL-80m_LatLon0.15_PT071H.grib2 2026-04-24 16:04 1.2M
20260424T12Z_MSC_GDPS_WindSpeed_IsbL-0700_LatLon0.15_PT071H.grib2 2026-04-24 16:04 1.5M
20260424T12Z_MSC_GDPS_WindU_AGL-10m_LatLon0.15_PT071H.grib2 2026-04-24 16:04 1.3M
20260424T12Z_MSC_GDPS_WindU_AGL-120m_LatLon0.15_PT071H.grib2 2026-04-24 16:04 972K
20260424T12Z_MSC_GDPS_WindU_AGL-40m_LatLon0.15_PT071H.grib2 2026-04-24 16:04 970K
20260424T12Z_MSC_GDPS_WindU_AGL-80m_LatLon0.15_PT071H.grib2 2026-04-24 16:04 1.0M
20260424T12Z_MSC_GDPS_WindU_IsbL-0700_LatLon0.15_PT071H.grib2 2026-04-24 16:04 1.2M
20260424T12Z_MSC_GDPS_WindV_AGL-10m_LatLon0.15_PT071H.grib2 2026-04-24 16:04 1.3M
20260424T12Z_MSC_GDPS_WindV_AGL-120m_LatLon0.15_PT071H.grib2 2026-04-24 16:04 1.0M
20260424T12Z_MSC_GDPS_WindV_AGL-40m_LatLon0.15_PT071H.grib2 2026-04-24 16:04 971K
20260424T12Z_MSC_GDPS_WindV_AGL-80m_LatLon0.15_PT071H.grib2 2026-04-24 16:04 1.0M
20260424T12Z_MSC_GDPS_WindV_IsbL-0700_LatLon0.15_PT071H.grib2 2026-04-24 16:04 1.2M